TimeAWST,TemperatureF,Dew PointF,Humidity,Sea Level PressureIn,VisibilityMPH,Wind Direction,Wind SpeedMPH,Gust SpeedMPH,PrecipitationIn,Events,Conditions,WindDirDegrees,DateUTC
12:00 AM,67,59,68,29.82,,SW,1.2,,,,,220,2013-04-14 16:00:00
12:00 AM,68.0,59.0,73,29.83,-9999.0,SW,1.2,-,N/A,,Unknown,220,2013-04-14 16:00:00
1:00 AM,66.2,60.8,83,29.80,-9999.0,South,3.5,-,N/A,,Unknown,190,2013-04-14 17:00:00
2:00 AM,66.2,59.0,78,29.80,-9999.0,South,3.5,-,N/A,,Unknown,180,2013-04-14 18:00:00
3:00 AM,65,60,77,29.79,,Calm,Calm,,,,,,2013-04-14 19:00:00
3:00 AM,64.4,59.0,83,29.80,-9999.0,Calm,Calm,-,N/A,,Unknown,0,2013-04-14 19:00:00
4:00 AM,64.4,59.0,83,29.80,-9999.0,Calm,Calm,-,N/A,,Unknown,0,2013-04-14 20:00:00
5:00 AM,62.6,59.0,88,29.80,-9999.0,Calm,Calm,-,N/A,,Unknown,0,2013-04-14 21:00:00
6:00 AM,62,60,89,29.81,,Calm,Calm,,,,,,2013-04-14 22:00:00
6:00 AM,62.6,59.0,88,29.80,-9999.0,Calm,Calm,-,N/A,,Unknown,0,2013-04-14 22:00:00
7:00 AM,69.8,64.4,83,29.83,-9999.0,East,3.5,-,N/A,,Unknown,90,2013-04-14 23:00:00
8:00 AM,78.8,64.4,61,29.83,-9999.0,South,4.6,-,N/A,,Unknown,190,2013-04-15 00:00:00
9:00 AM,85,63,38,29.83,,SSE,4.6,,,,,150,2013-04-15 01:00:00
9:00 AM,86.0,62.6,45,29.83,-9999.0,SSE,4.6,-,N/A,,Unknown,150,2013-04-15 01:00:00
10:00 AM,91.4,60.8,36,29.83,-9999.0,SE,4.6,-,N/A,,Unknown,140,2013-04-15 02:00:00
11:00 AM,95.0,53.6,25,29.80,-9999.0,SSE,4.6,-,N/A,,Unknown,150,2013-04-15 03:00:00
12:00 PM,100,50,11,29.76,,NE,5.8,,,,,50,2013-04-15 04:00:00
12:00 PM,100.4,50.0,18,29.77,-9999.0,NE,5.8,-,N/A,,Unknown,50,2013-04-15 04:00:00
1:00 PM,100.4,50.0,18,29.74,-9999.0,ENE,8.1,-,N/A,,Unknown,60,2013-04-15 05:00:00
2:00 PM,100.4,44.6,15,29.71,-9999.0,NNE,3.5,-,N/A,,Unknown,30,2013-04-15 06:00:00
3:00 PM,101,48,10,29.72,,East,3.5,,,,,80,2013-04-15 07:00:00
3:00 PM,100.4,48.2,17,29.71,-9999.0,East,3.5,-,N/A,,Unknown,80,2013-04-15 07:00:00
4:00 PM,98.6,51.8,21,29.71,-9999.0,ENE,5.8,-,N/A,,Unknown,70,2013-04-15 08:00:00
5:00 PM,91.4,59.0,34,29.74,-9999.0,NNE,3.5,-,N/A,,Unknown,20,2013-04-15 09:00:00
5:55 PM,82.4,59.0,45,29.74,-9999.0,NW,3.5,-,N/A,,Unknown,320,2013-04-15 09:55:00
6:00 PM,82,59,35,29.75,,NNW,3.5,,,,,330,2013-04-15 10:00:00
6:00 PM,82.4,59.0,45,29.74,-9999.0,NNW,3.5,-,N/A,,Unknown,330,2013-04-15 10:00:00
7:00 PM,77.0,59.0,54,29.77,-9999.0,North,3.5,-,N/A,,Unknown,360,2013-04-15 11:00:00
8:00 PM,73.4,59.0,61,29.80,-9999.0,Calm,Calm,-,N/A,,Unknown,0,2013-04-15 12:00:00
9:00 PM,72,61,60,29.80,,North,5.8,,,,,350,2013-04-15 13:00:00
9:00 PM,71.6,60.8,69,29.80,-9999.0,North,5.8,-,N/A,,Unknown,350,2013-04-15 13:00:00
10:00 PM,71.6,64.4,78,29.80,-9999.0,North,3.5,-,N/A,,Unknown,360,2013-04-15 14:00:00
11:00 PM,69.8,64.4,83,29.80,-9999.0,North,1.2,-,N/A,,Unknown,350,2013-04-15 15:00:00